This demonstration page uses our WeatherBlox Daily Observations layout. Learn more.

Left ArrowRight Arrow

41.86663, -103.66717

Hourly Observations for April 2, 2017

Temp ( °F °C ) Dew Point ( °F °C ) Humidity (%) Winds ( mph kmh ) Pressure ( in mb ) Visibility ( mi km ) Precip ( " mm )
12:53 am 00:53 Clear 37 2.8 31 -0.6 79 79 S 7 11 29.98 1015 10 16.0934 N/A
1:53 am 01:53 Clear 34 1.1 30 -1.1 85 85 ESE 3 6 29.96 1015 10 16.0934 N/A
2:53 am 02:53 Clear 32 undefined 29 -1.7 88 88 ESE 7 11 29.93 1014 10 16.0934 N/A
3:53 am 03:53 Clear 31 -0.6 28 -2.2 89 89 ENE 6 9 29.89 1012 10 16.0934 N/A
4:53 am 04:53 Clear 31 -0.6 28 -2.2 89 89 NNE 6 9 29.86 1011 10 16.0934 N/A
5:53 am 05:53 Clear 31 -0.6 28 -2.2 89 89 N N/A 29.85 1011 10 16.0934 N/A
6:53 am 06:53 Sunny 30 -1.1 27 -2.8 88 88 N N/A 29.86 1011 10 16.0934 N/A
7:53 am 07:53 Sunny 35 1.7 32 undefined 89 89 NW 6 9 29.86 1011 9 14.48406 N/A
8:53 am 08:53 Sunny 40 4.4 35 1.7 83 83 WNW 9 15 29.84 1010 10 16.0934 N/A
9:53 am 09:53 Sunny 48 8.9 38 3.3 68 68 WNW 10 17 29.82 1010 10 16.0934 N/A
10:53 am 10:53 Sunny 52 11.1 39 3.9 61 61 WNW 9 15 29.82 1010 10 16.0934 N/A
11:53 am 11:53 Sunny 59 15 41 5 51 51 W 7 11 29.78 1009 10 16.0934 N/A
12:53 pm 12:53 Sunny 61 16.1 37 2.8 41 41 VRB 5 7 29.75 1008 10 16.0934 N/A
1:53 pm 13:53 Mostly Cloudy 61 16.1 37 2.8 41 41 NNE 15 24 29.75 1008 10 16.0934 N/A
2:53 pm 14:53 Partly Cloudy 63 17.2 36 2.2 37 37 NNE 10 17 29.75 1007 10 16.0934 N/A
3:53 pm 15:53 Cloudy 61 16.1 35 1.7 38 38 NNE 9 15 29.74 1007 10 16.0934 N/A
4:53 pm 16:53 Mostly Cloudy 61 16.1 35 1.7 38 38 N 9 15 29.72 1007 10 16.0934 N/A
5:53 pm 17:53 Partly Cloudy 56 13.3 40 4.4 55 55 N 18 30 29.73 1007 10 16.0934 N/A
6:53 pm 18:53 Mostly Cloudy 51 10.6 39 3.9 64 64 N 25 41 29.75 1008 10 16.0934 N/A
7:53 pm 19:53 Cloudy with Light Rain 48 8.9 38 3.3 68 68 N 18 30 29.77 1008 10 16.0934 N/A
8:53 pm 20:53 Cloudy with Light Rain 46 7.8 39 3.9 77 77 NNE 15 24 29.77 1008 10 16.0934 0.01 0.254
9:53 pm 21:53 Cloudy 46 7.8 40 4.4 79 79 S 8 13 29.75 1007 10 16.0934 N/A
10:53 pm 22:53 Cloudy 45 7.2 38 3.3 77 77 ESE 9 15 29.72 1007 10 16.0934 N/A
11:53 pm 23:53 Cloudy 45 7.2 39 3.9 80 80 N N/A 29.7 1006 10 16.0934 N/A

Powered by AerisWeather